| time (UTC) | temp F | wind direction | speed knots | gust knots | rain 1hr in | rain 24hr in | rain mn in | humidity % | barometer mb |
| 20260510141503 | 68 | 168 | 1.7 | 6.1 | 0.00 | 0.03 | 0.03 | 87 | 1014.6 |
| 20260510141002 | 68 | 171 | 1.7 | 6.1 | 0.00 | 0.03 | 0.03 | 87 | 1014.9 |
| 20260510140502 | 67 | 170 | 0.9 | 4.3 | 0.00 | 0.03 | 0.03 | 88 | 1015.1 |
| 20260510135503 | 67 | 178 | 0.9 | 4.3 | 0.00 | 0.03 | 0.03 | 88 | 1015.4 |
| 20260510135003 | 67 | 178 | 1.7 | 4.3 | 0.00 | 0.03 | 0.03 | 89 | 1015.5 |
| 20260510134503 | 66 | 171 | 0.9 | 4.3 | 0.00 | 0.03 | 0.03 | 89 | 1015.4 |
| 20260510134003 | 66 | 165 | 0.9 | 4.3 | 0.00 | 0.03 | 0.03 | 89 | 1015.3 |
| 20260510133502 | 66 | 162 | 0.9 | 4.3 | 0.00 | 0.03 | 0.03 | 90 | 1015.3 |
| 20260510133003 | 66 | 162 | 0.9 | 4.3 | 0.00 | 0.03 | 0.03 | 90 | 1015.2 |
| 20260510132503 | 66 | 164 | 0.9 | 2.6 | 0.00 | 0.03 | 0.03 | 91 | 1015.1 |
| 20260510132002 | 66 | 166 | 0.9 | 3.5 | 0.00 | 0.03 | 0.03 | 91 | 1014.9 |
| 20260510131503 | 66 | 155 | 0.9 | 3.5 | 0.00 | 0.03 | 0.03 | 92 | 1014.9 |
| 20260510131002 | 66 | 134 | 0.9 | 2.6 | 0.00 | 0.03 | 0.03 | 92 | 1014.8 |
| 20260510130003 | 66 | 128 | 0.9 | 3.5 | 0.00 | 0.03 | 0.03 | 92 | 1014.8 |
| 20260510125502 | 65 | 141 | 0.9 | 2.6 | 0.00 | 0.03 | 0.03 | 93 | 1014.6 |
| 20260510125003 | 65 | 157 | 0.9 | 4.3 | 0.00 | 0.03 | 0.03 | 93 | 1014.6 |
| 20260510124503 | 65 | 162 | 0.9 | 4.3 | 0.00 | 0.03 | 0.03 | 93 | 1014.7 |
| 20260510123503 | 65 | 143 | 0.0 | 2.6 | 0.00 | 0.03 | 0.03 | 94 | 1014.6 |
| 20260510123003 | 65 | 130 | 0.0 | 1.7 | 0.00 | 0.03 | 0.03 | 94 | 1014.6 |
| 20260510122502 | 65 | 0 | 0.0 | 0.0 | 0.00 | 0.03 | 0.03 | 94 | 1014.6 |
| 20260510122003 | 64 | 153 | 0.0 | 2.6 | 0.00 | 0.03 | 0.03 | 94 | 1014.6 |
| 20260510121002 | 64 | 70 | 0.0 | 2.6 | 0.00 | 0.03 | 0.03 | 94 | 1014.5 |
| 20260510120503 | 64 | 90 | 0.9 | 3.5 | 0.00 | 0.03 | 0.03 | 94 | 1014.4 |
| 20260510120003 | 64 | 106 | 0.0 | 3.5 | 0.00 | 0.03 | 0.03 | 94 | 1014.2 |
| 20260510115003 | 64 | 117 | 0.0 | 1.7 | 0.00 | 0.03 | 0.03 | 94 | 1014.1 |
| 20260510114503 | 64 | 122 | 0.0 | 1.7 | 0.00 | 0.03 | 0.03 | 94 | 1014.2 |
| 20260510114002 | 64 | 136 | 0.0 | 2.6 | 0.00 | 0.03 | 0.03 | 94 | 1014.2 |
| 20260510113503 | 64 | 140 | 0.0 | 2.6 | 0.00 | 0.03 | 0.03 | 94 | 1014.1 |
| 20260510113003 | 64 | 141 | 0.0 | 2.6 | 0.00 | 0.03 | 0.03 | 94 | 1014.2 |
| 20260510112002 | 64 | 126 | 0.0 | 0.9 | 0.00 | 0.03 | 0.03 | 94 | 1014.2 |
| 20260510111503 | 65 | 141 | 0.0 | 2.6 | 0.00 | 0.03 | 0.03 | 94 | 1014.2 |
| 20260510111003 | 65 | 146 | 0.0 | 2.6 | 0.00 | 0.03 | 0.03 | 94 | 1013.9 |
| 20260510110503 | 65 | 0 | 0.0 | 0.0 | 0.00 | 0.03 | 0.03 | 93 | 1014.0 |
| 20260510105503 | 65 | 171 | 0.0 | 0.9 | 0.03 | 0.03 | 0.03 | 93 | 1013.9 |
| 20260510105003 | 65 | 144 | 0.0 | 2.6 | 0.03 | 0.03 | 0.03 | 93 | 1013.8 |
| 20260510104503 | 65 | 135 | 0.9 | 2.6 | 0.03 | 0.03 | 0.03 | 93 | 1013.5 |
| 20260510104003 | 65 | 139 | 0.9 | 5.2 | 0.03 | 0.03 | 0.03 | 93 | 1013.4 |
| 20260510103503 | 65 | 149 | 0.9 | 5.2 | 0.03 | 0.03 | 0.03 | 93 | 1013.5 |
| 20260510102503 | 65 | 90 | 1.7 | 7.8 | 0.03 | 0.03 | 0.03 | 92 | 1013.7 |
| 20260510102002 | 66 | 84 | 1.7 | 7.8 | 0.03 | 0.03 | 0.03 | 91 | 1013.7 |
| 20260510101503 | 66 | 85 | 1.7 | 7.0 | 0.03 | 0.03 | 0.03 | 91 | 1013.3 |
| 20260510101003 | 66 | 94 | 1.7 | 7.0 | 0.03 | 0.03 | 0.03 | 90 | 1013.2 |
| 20260510100503 | 67 | 87 | 2.6 | 6.1 | 0.02 | 0.02 | 0.02 | 89 | 1013.5 |
| 20260510100003 | 68 | 71 | 2.6 | 7.0 | 0.02 | 0.02 | 0.02 | 86 | 1013.7 |
| 20260510095003 | 71 | 46 | 1.7 | 4.3 | 0.00 | 0.00 | 0.00 | 80 | 1015.2 |
| 20260510094003 | 72 | 49 | 1.7 | 10.4 | 0.00 | 0.00 | 0.00 | 79 | 1014.6 |
| 20260510093503 | 72 | 58 | 2.6 | 11.3 | 0.00 | 0.00 | 0.00 | 80 | 1014.3 |
| 20260510093003 | 72 | 59 | 1.7 | 11.3 | 0.00 | 0.00 | 0.00 | 82 | 1013.7 |
| 20260510092503 | 74 | 68 | 0.9 | 5.2 | 0.00 | 0.00 | 0.00 | 90 | 1013.7 |
| 20260510092003 | 74 | 83 | 0.9 | 3.5 | 0.00 | 0.00 | 0.00 | 92 | 1013.5 |
| 20260510091503 | 74 | 95 | 0.0 | 3.5 | 0.00 | 0.00 | 0.00 | 92 | 1013.4 |
| 20260510090503 | 74 | 101 | 0.0 | 0.9 | 0.00 | 0.00 | 0.00 | 92 | 1013.2 |
| 20260510090003 | 74 | 102 | 0.0 | 1.7 | 0.00 | 0.00 | 0.00 | 92 | 1012.8 |
| 20260510084003 | 74 | 135 | 0.0 | 1.7 | 0.00 | 0.00 | 0.00 | 92 | 1012.1 |
| 20260510083503 | 74 | 0 | 0.0 | 0.0 | 0.00 | 0.00 | 0.00 | 92 | 1012.1 |
| 20260510083003 | 73 | 0 | 0.0 | 0.0 | 0.00 | 0.00 | 0.00 | 92 | 1012.2 |
| 20260510082003 | 73 | 0 | 0.0 | 0.0 | 0.00 | 0.00 | 0.00 | 91 | 1011.8 |
| 20260510081003 | 73 | 128 | 0.0 | 0.9 | 0.00 | 0.00 | 0.00 | 91 | 1011.2 |
| 20260510080503 | 73 | 128 | 0.0 | 0.9 | 0.00 | 0.00 | 0.00 | 90 | 1011.1 |
| 20260510075503 | 73 | 127 | 0.0 | 0.9 | 0.00 | 0.00 | 0.00 | 90 | 1010.9 |
| 20260510075003 | 74 | 126 | 0.0 | 0.9 | 0.00 | 0.00 | 0.00 | 90 | 1011.0 |
| 20260510074503 | 74 | 147 | 0.0 | 1.7 | 0.00 | 0.00 | 0.00 | 90 | 1010.7 |
| 20260510073003 | 74 | 147 | 0.0 | 0.9 | 0.00 | 0.00 | 0.00 | 89 | 1010.5 |
| 20260510072503 | 74 | 0 | 0.0 | 0.0 | 0.00 | 0.00 | 0.00 | 88 | 1010.8 |
| 20260510072003 | 74 | 0 | 0.0 | 0.0 | 0.00 | 0.00 | 0.00 | 87 | 1010.9 |
| 20260510071504 | 74 | 0 | 0.0 | 0.0 | 0.00 | 0.00 | 0.00 | 87 | 1011.2 |
| 20260510071003 | 74 | 0 | 0.0 | 0.0 | 0.00 | 0.00 | 0.00 | 87 | 1011.3 |
| 20260510070503 | 74 | 0 | 0.0 | 0.0 | 0.00 | 0.00 | 0.00 | 87 | 1011.5 |
| 20260510070003 | 75 | 0 | 0.0 | 0.0 | 0.00 | 0.00 | 0.00 | 87 | 1011.7 |
| 20260510065503 | 75 | 0 | 0.0 | 0.0 | 0.00 | 0.00 | 0.00 | 87 | 1011.6 |
| 20260510065004 | 75 | 0 | 0.0 | 0.0 | 0.00 | 0.00 | 0.00 | 87 | 1011.6 |
| 20260510064504 | 75 | 0 | 0.0 | 0.0 | 0.00 | 0.00 | 0.00 | 86 | 1011.6 |
| 20260510064003 | 75 | 0 | 0.0 | 0.0 | 0.00 | 0.00 | 0.00 | 86 | 1011.6 |
| 20260510063503 | 75 | 0 | 0.0 | 0.0 | 0.00 | 0.00 | 0.00 | 86 | 1011.7 |
| 20260510063003 | 75 | 0 | 0.0 | 0.0 | 0.00 | 0.00 | 0.00 | 86 | 1011.6 |
| 20260510062504 | 75 | 156 | 0.0 | 0.9 | 0.00 | 0.00 | 0.00 | 85 | 1011.1 |
| 20260510062004 | 75 | 169 | 0.9 | 1.7 | 0.00 | 0.00 | 0.00 | 85 | 1010.7 |
| 20260510061503 | 75 | 160 | 0.9 | 3.5 | 0.00 | 0.00 | 0.00 | 85 | 1010.3 |
| 20260510061003 | 75 | 159 | 1.7 | 5.2 | 0.00 | 0.00 | 0.00 | 85 | 1010.0 |
| 20260510060003 | 75 | 161 | 0.9 | 5.2 | 0.00 | 0.00 | 0.00 | 86 | 1009.8 |
| 20260510055504 | 75 | 155 | 0.9 | 3.5 | 0.00 | 0.00 | 0.00 | 86 | 1009.8 |
| 20260510055004 | 75 | 156 | 0.9 | 3.5 | 0.00 | 0.00 | 0.00 | 86 | 1009.7 |
| 20260510054003 | 75 | 156 | 0.9 | 4.3 | 0.00 | 0.00 | 0.00 | 87 | 1009.6 |
| 20260510053503 | 75 | 146 | 0.9 | 4.3 | 0.00 | 0.00 | 0.00 | 87 | 1009.6 |
| 20260510053003 | 75 | 138 | 0.9 | 4.3 | 0.00 | 0.00 | 0.00 | 87 | 1009.6 |
| 20260510052503 | 75 | 133 | 0.9 | 3.5 | 0.00 | 0.00 | 0.00 | 87 | 1009.7 |
| 20260510052003 | 75 | 135 | 0.9 | 4.3 | 0.00 | 0.00 | 0.00 | 87 | 1009.8 |
| 20260510051004 | 75 | 136 | 0.9 | 2.6 | 0.00 | 0.00 | 0.00 | 87 | 1009.5 |
| 20260510050503 | 75 | 149 | 0.9 | 2.6 | 0.00 | 0.00 | 0.00 | 87 | 1009.4 |
| 20260510050004 | 75 | 145 | 0.9 | 3.5 | 0.00 | 0.00 | 0.00 | 87 | 1009.3 |
| 20260510045504 | 75 | 144 | 0.9 | 4.3 | 0.00 | 0.00 | 0.00 | 86 | 1009.2 |
| 20260510045003 | 75 | 143 | 0.9 | 4.3 | 0.00 | 0.00 | 0.00 | 86 | 1009.2 |
| 20260510044001 | 75 | 131 | 0.9 | 3.5 | 0.00 | 0.00 | 0.00 | 86 | 1009.1 |
| 20260510043501 | 75 | 116 | 0.0 | 3.5 | 0.00 | 0.00 | 0.00 | 85 | 1009.2 |
| 20260510043001 | 74 | 114 | 0.0 | 2.6 | 0.00 | 0.00 | 0.00 | 85 | 1009.2 |
| 20260510042001 | 74 | 130 | 0.0 | 0.9 | 0.00 | 0.00 | 0.00 | 83 | 1009.4 |
| 20260510041501 | 74 | 147 | 0.0 | 0.9 | 0.00 | 0.00 | 0.00 | 82 | 1009.5 |
| 20260510041001 | 75 | 148 | 0.0 | 0.9 | 0.00 | 0.00 | 0.00 | 82 | 1009.5 |
| 20260510035501 | 75 | 161 | 0.0 | 1.7 | 0.00 | 0.00 | 0.00 | 81 | 1009.3 |
| 20260510035001 | 75 | 147 | 0.0 | 1.7 | 0.00 | 0.00 | 0.00 | 81 | 1009.4 |
| 20260510034501 | 75 | 135 | 0.0 | 1.7 | 0.00 | 0.00 | 0.00 | 81 | 1009.3 |
| 20260510033502 | 75 | 184 | 0.0 | 1.7 | 0.00 | 0.00 | 0.00 | 81 | 1009.4 |
| 20260510032501 | 74 | 137 | 0.0 | 0.9 | 0.00 | 0.00 | 0.00 | 81 | 1009.5 |
| 20260510032002 | 75 | 115 | 0.0 | 0.9 | 0.00 | 0.00 | 0.00 | 81 | 1009.4 |
| 20260510031501 | 75 | 115 | 0.0 | 0.9 | 0.00 | 0.00 | 0.00 | 80 | 1009.4 |
| 20260510031001 | 75 | 107 | 0.0 | 0.9 | 0.00 | 0.00 | 0.00 | 80 | 1009.4 |
| 20260510030501 | 75 | 106 | 0.0 | 0.9 | 0.00 | 0.00 | 0.00 | 80 | 1009.4 |
| 20260510030002 | 75 | 107 | 0.0 | 2.6 | 0.00 | 0.00 | 0.00 | 79 | 1009.4 |
| 20260510025501 | 75 | 109 | 0.0 | 2.6 | 0.00 | 0.00 | 0.00 | 80 | 1009.4 |
| 20260510025002 | 75 | 118 | 0.0 | 0.9 | 0.00 | 0.00 | 0.00 | 79 | 1009.4 |
| 20260510024501 | 75 | 117 | 0.0 | 0.9 | 0.00 | 0.00 | 0.00 | 79 | 1009.3 |
| 20260510024002 | 75 | 0 | 0.0 | 0.0 | 0.00 | 0.00 | 0.00 | 79 | 1009.2 |
| 20260510023502 | 76 | 0 | 0.0 | 0.0 | 0.00 | 0.00 | 0.00 | 78 | 1009.2 |
| 20260510022501 | 76 | 94 | 0.0 | 0.9 | 0.00 | 0.00 | 0.00 | 78 | 1009.1 |
| 20260510022002 | 76 | 94 | 0.0 | 0.9 | 0.00 | 0.00 | 0.00 | 78 | 1009.1 |
| 20260510021001 | 77 | 62 | 0.0 | 0.9 | 0.00 | 0.00 | 0.00 | 77 | 1008.9 |
| 20260510020502 | 77 | 0 | 0.0 | 0.0 | 0.00 | 0.00 | 0.00 | 76 | 1008.9 |
| 20260510020001 | 77 | 0 | 0.0 | 0.0 | 0.00 | 0.00 | 0.00 | 76 | 1008.9 |
| 20260510015502 | 78 | 62 | 0.0 | 0.9 | 0.00 | 0.00 | 0.00 | 75 | 1008.8 |
| 20260510014001 | 79 | 0 | 0.0 | 0.0 | 0.00 | 0.00 | 0.00 | 73 | 1008.7 |
| 20260510013502 | 79 | 108 | 0.0 | 0.9 | 0.00 | 0.00 | 0.00 | 73 | 1008.6 |
| 20260510013002 | 80 | 86 | 0.0 | 1.7 | 0.00 | 0.00 | 0.00 | 72 | 1008.4 |
| 20260510012501 | 80 | 102 | 0.0 | 1.7 | 0.00 | 0.00 | 0.00 | 71 | 1008.5 |
| 20260510012001 | 80 | 99 | 0.0 | 2.6 | 0.00 | 0.00 | 0.00 | 70 | 1008.5 |
| 20260510011501 | 81 | 81 | 0.0 | 2.6 | 0.00 | 0.00 | 0.00 | 68 | 1008.5 |
| 20260510011002 | 82 | 137 | 0.0 | 0.9 | 0.00 | 0.00 | 0.00 | 66 | 1008.3 |
| 20260510010501 | 82 | 137 | 0.0 | 0.9 | 0.00 | 0.00 | 0.00 | 65 | 1008.3 |
| 20260510010001 | 83 | 139 | 0.0 | 0.9 | 0.00 | 0.00 | 0.00 | 61 | 1008.3 |
| 20260510005502 | 85 | 0 | 0.0 | 0.0 | 0.00 | 0.00 | 0.00 | 59 | 1008.2 |
| 20260510005001 | 86 | 0 | 0.0 | 0.0 | 0.00 | 0.00 | 0.00 | 57 | 1008.3 |
| 20260510003502 | 90 | 139 | 0.0 | 0.9 | 0.00 | 0.00 | 0.00 | 53 | 1008.2 |
| 20260510003003 | 90 | 0 | 0.0 | 0.0 | 0.00 | 0.00 | 0.00 | 52 | 1008.3 |
| 20260510002502 | 91 | 0 | 0.0 | 0.0 | 0.00 | 0.00 | 0.00 | 51 | 1008.3 |
| 20260510002002 | 92 | 0 | 0.0 | 0.0 | 0.00 | 0.00 | 0.00 | 51 | 1008.2 |
| 20260510001001 | 92 | 139 | 0.0 | 0.9 | 0.00 | 0.00 | 0.00 | 50 | 1008.3 |
| 20260510000502 | 91 | 139 | 0.0 | 0.9 | 0.00 | 0.00 | 0.00 | 51 | 1008.3 |
| 20260510000001 | 91 | 139 | 0.0 | 0.9 | 0.00 | 0.00 | 0.00 | 50 | 1008.2 |
| 20260509235502 | 91 | 139 | 0.0 | 0.9 | 0.00 | 0.00 | 0.00 | 51 | 1008.1 |
| 20260509235002 | 91 | 139 | 0.0 | 0.9 | 0.00 | 0.00 | 0.00 | 51 | 1008.1 |
| 20260509234501 | 91 | 139 | 0.0 | 0.9 | 0.00 | 0.00 | 0.00 | 52 | 1008.1 |
| 20260509234002 | 91 | 139 | 0.0 | 0.9 | 0.00 | 0.00 | 0.00 | 51 | 1008.1 |
| 20260509233502 | 91 | 132 | 0.0 | 0.9 | 0.00 | 0.00 | 0.00 | 52 | 1008.1 |
| 20260509232502 | 90 | 128 | 0.0 | 1.7 | 0.00 | 0.00 | 0.00 | 51 | 1008.1 |
| 20260509232001 | 91 | 130 | 0.0 | 2.6 | 0.00 | 0.00 | 0.00 | 51 | 1008.1 |
| 20260509231502 | 91 | 115 | 0.0 | 2.6 | 0.00 | 0.00 | 0.00 | 50 | 1008.1 |
| 20260509231001 | 91 | 92 | 0.0 | 0.9 | 0.00 | 0.00 | 0.00 | 51 | 1008.2 |
| 20260509230502 | 90 | 125 | 0.0 | 0.9 | 0.00 | 0.00 | 0.00 | 51 | 1008.2 |
| 20260509230003 | 90 | 124 | 0.0 | 1.7 | 0.00 | 0.00 | 0.00 | 50 | 1008.1 |
| 20260509225502 | 91 | 124 | 0.0 | 1.7 | 0.00 | 0.00 | 0.00 | 51 | 1008.2 |
| 20260509225002 | 91 | 160 | 0.0 | 0.9 | 0.00 | 0.00 | 0.00 | 51 | 1008.2 |
| 20260509224502 | 92 | 121 | 0.0 | 0.9 | 0.00 | 0.00 | 0.00 | 49 | 1008.1 |
| 20260509224002 | 92 | 90 | 0.0 | 0.9 | 0.00 | 0.00 | 0.00 | 51 | 1008.1 |
| 20260509223001 | 91 | 96 | 0.0 | 0.9 | 0.00 | 0.00 | 0.00 | 52 | 1008.0 |
| 20260509222502 | 91 | 99 | 0.0 | 0.9 | 0.00 | 0.00 | 0.00 | 50 | 1008.0 |
| 20260509222001 | 91 | 91 | 0.0 | 1.7 | 0.00 | 0.00 | 0.00 | 51 | 1008.1 |
| 20260509221502 | 91 | 100 | 0.0 | 1.7 | 0.00 | 0.00 | 0.00 | 51 | 1008.1 |
| 20260509220501 | 91 | 128 | 0.0 | 1.7 | 0.00 | 0.00 | 0.00 | 54 | 1008.1 |
| 20260509215502 | 91 | 47 | 0.0 | 1.7 | 0.00 | 0.00 | 0.00 | 55 | 1008.1 |
| 20260509215001 | 91 | 82 | 0.0 | 1.7 | 0.00 | 0.00 | 0.00 | 54 | 1008.2 |
| 20260509214502 | 90 | 108 | 0.0 | 1.7 | 0.00 | 0.00 | 0.00 | 54 | 1008.2 |
| 20260509214001 | 90 | 115 | 0.0 | 1.7 | 0.00 | 0.00 | 0.00 | 55 | 1008.2 |
| 20260509213501 | 90 | 109 | 0.0 | 2.6 | 0.00 | 0.00 | 0.00 | 57 | 1008.2 |
| 20260509213002 | 90 | 122 | 0.0 | 2.6 | 0.00 | 0.00 | 0.00 | 57 | 1008.4 |
| 20260509212502 | 90 | 124 | 0.0 | 2.6 | 0.00 | 0.00 | 0.00 | 57 | 1008.4 |
| 20260509212002 | 90 | 117 | 0.0 | 2.6 | 0.00 | 0.00 | 0.00 | 58 | 1008.6 |
| 20260509211502 | 90 | 120 | 0.0 | 2.6 | 0.00 | 0.00 | 0.00 | 57 | 1008.6 |
| 20260509211002 | 90 | 114 | 0.0 | 1.7 | 0.00 | 0.00 | 0.00 | 57 | 1008.6 |
| 20260509210002 | 90 | 78 | 0.0 | 1.7 | 0.00 | 0.00 | 0.00 | 61 | 1008.7 |
| 20260509205502 | 90 | 86 | 0.0 | 1.7 | 0.00 | 0.00 | 0.00 | 60 | 1008.9 |
| 20260509205001 | 90 | 109 | 0.0 | 2.6 | 0.00 | 0.00 | 0.00 | 61 | 1008.9 |
| 20260509204502 | 90 | 117 | 0.0 | 2.6 | 0.00 | 0.00 | 0.00 | 59 | 1009.1 |
| 20260509204001 | 89 | 117 | 0.9 | 2.6 | 0.00 | 0.00 | 0.00 | 61 | 1009.1 |
| 20260509203502 | 89 | 115 | 0.9 | 2.6 | 0.00 | 0.00 | 0.00 | 61 | 1009.2 |
| 20260509203002 | 90 | 114 | 0.0 | 2.6 | 0.00 | 0.00 | 0.00 | 61 | 1009.3 |
| 20260509202502 | 90 | 122 | 0.0 | 0.9 | 0.00 | 0.00 | 0.00 | 62 | 1009.3 |
| 20260509202002 | 89 | 101 | 0.0 | 1.7 | 0.00 | 0.00 | 0.00 | 63 | 1009.4 |
| 20260509201503 | 89 | 270 | 0.0 | 2.6 | 0.00 | 0.00 | 0.00 | 62 | 1009.4 |
| 20260509201002 | 89 | 261 | 0.0 | 2.6 | 0.00 | 0.00 | 0.00 | 63 | 1009.5 |
| 20260509200002 | 89 | 12 | 0.0 | 1.7 | 0.00 | 0.00 | 0.00 | 65 | 1009.5 |
| 20260509195002 | 88 | 100 | 0.0 | 1.7 | 0.00 | 0.00 | 0.00 | 65 | 1009.5 |
| 20260509194502 | 88 | 89 | 0.0 | 1.7 | 0.00 | 0.00 | 0.00 | 65 | 1009.6 |
| 20260509194002 | 88 | 92 | 0.0 | 1.7 | 0.00 | 0.00 | 0.00 | 68 | 1009.6 |
| 20260509193502 | 88 | 91 | 0.0 | 2.6 | 0.00 | 0.00 | 0.00 | 68 | 1009.6 |
| 20260509193002 | 87 | 81 | 0.0 | 2.6 | 0.00 | 0.00 | 0.00 | 67 | 1009.7 |
| 20260509192502 | 88 | 39 | 0.0 | 2.6 | 0.00 | 0.00 | 0.00 | 67 | 1009.6 |
| 20260509191002 | 88 | 104 | 0.0 | 4.3 | 0.00 | 0.00 | 0.00 | 67 | 1009.9 |
| 20260509190002 | 88 | 139 | 0.0 | 2.6 | 0.00 | 0.00 | 0.00 | 66 | 1009.9 |
| 20260509185502 | 87 | 115 | 0.0 | 2.6 | 0.00 | 0.00 | 0.00 | 69 | 1010.0 |
| 20260509185002 | 87 | 99 | 0.9 | 3.5 | 0.00 | 0.00 | 0.00 | 69 | 1009.9 |
| 20260509184502 | 87 | 61 | 0.0 | 3.5 | 0.00 | 0.00 | 0.00 | 68 | 1009.9 |
| 20260509184002 | 87 | 15 | 0.9 | 2.6 | 0.00 | 0.00 | 0.00 | 69 | 1009.9 |
| 20260509183502 | 86 | 37 | 0.0 | 1.7 | 0.00 | 0.00 | 0.00 | 69 | 1009.8 |
| 20260509181502 | 86 | 87 | 0.0 | 2.6 | 0.00 | 0.00 | 0.00 | 71 | 1010.1 |
| 20260509181002 | 86 | 66 | 0.0 | 2.6 | 0.00 | 0.00 | 0.00 | 70 | 1010.1 |
| 20260509180502 | 86 | 50 | 0.0 | 1.7 | 0.00 | 0.00 | 0.00 | 70 | 1010.2 |
| 20260509175502 | 86 | 104 | 0.0 | 2.6 | 0.00 | 0.00 | 0.00 | 70 | 1010.1 |
| 20260509175003 | 86 | 100 | 0.0 | 2.6 | 0.00 | 0.00 | 0.00 | 69 | 1010.2 |
| 20260509174502 | 86 | 106 | 0.0 | 1.7 | 0.00 | 0.00 | 0.00 | 69 | 1010.3 |
| 20260509174002 | 86 | 61 | 0.0 | 1.7 | 0.00 | 0.00 | 0.00 | 70 | 1010.4 |
| 20260509173503 | 85 | 42 | 0.0 | 1.7 | 0.00 | 0.00 | 0.00 | 71 | 1010.3 |
| 20260509172503 | 85 | 118 | 0.0 | 1.7 | 0.00 | 0.00 | 0.00 | 71 | 1010.5 |
| 20260509172002 | 84 | 130 | 0.0 | 1.7 | 0.00 | 0.00 | 0.00 | 71 | 1010.6 |
| 20260509171002 | 84 | 238 | 0.0 | 2.6 | 0.00 | 0.00 | 0.00 | 71 | 1010.8 |
| 20260509170503 | 84 | 193 | 0.0 | 2.6 | 0.00 | 0.00 | 0.00 | 70 | 1010.8 |
| 20260509170002 | 84 | 118 | 0.0 | 2.6 | 0.00 | 0.00 | 0.00 | 71 | 1010.8 |
| 20260509165502 | 84 | 136 | 0.0 | 1.7 | 0.00 | 0.00 | 0.00 | 72 | 1010.7 |
| 20260509165002 | 83 | 251 | 0.0 | 1.7 | 0.00 | 0.00 | 0.00 | 73 | 1010.8 |
| 20260509164503 | 83 | 273 | 0.0 | 1.7 | 0.00 | 0.00 | 0.00 | 72 | 1010.8 |
| 20260509163502 | 82 | 300 | 0.0 | 2.6 | 0.00 | 0.00 | 0.00 | 72 | 1010.8 |
| 20260509163003 | 82 | 306 | 0.9 | 2.6 | 0.00 | 0.00 | 0.00 | 74 | 1010.8 |
| 20260509162502 | 82 | 283 | 0.9 | 3.5 | 0.00 | 0.00 | 0.00 | 74 | 1010.8 |
| 20260509162003 | 81 | 281 | 0.9 | 3.5 | 0.00 | 0.00 | 0.00 | 75 | 1010.7 |
| 20260509161003 | 81 | 258 | 0.0 | 2.6 | 0.00 | 0.00 | 0.00 | 75 | 1010.8 |
| 20260509160003 | 80 | 288 | 0.9 | 5.2 | 0.00 | 0.00 | 0.00 | 75 | 1010.7 |
| 20260509155003 | 80 | 291 | 0.9 | 2.6 | 0.00 | 0.00 | 0.00 | 76 | 1010.7 |
| 20260509154503 | 80 | 339 | 0.0 | 2.6 | 0.00 | 0.00 | 0.00 | 77 | 1010.6 |
| 20260509154002 | 80 | 31 | 0.0 | 2.6 | 0.00 | 0.00 | 0.00 | 75 | 1010.5 |
| 20260509153503 | 80 | 338 | 0.0 | 0.9 | 0.00 | 0.00 | 0.00 | 77 | 1010.4 |
| 20260509152503 | 79 | 294 | 0.0 | 1.7 | 0.00 | 0.00 | 0.00 | 78 | 1010.3 |
| 20260509152002 | 79 | 307 | 0.9 | 2.6 | 0.00 | 0.00 | 0.00 | 77 | 1010.3 |
| 20260509151502 | 79 | 313 | 0.0 | 2.6 | 0.00 | 0.00 | 0.00 | 78 | 1010.3 |
| 20260509151003 | 79 | 346 | 0.0 | 1.7 | 0.00 | 0.00 | 0.00 | 79 | 1010.5 |
| 20260509150502 | 78 | 330 | 0.9 | 3.5 | 0.00 | 0.00 | 0.00 | 79 | 1010.4 |
| 20260509150002 | 78 | 312 | 0.9 | 3.5 | 0.00 | 0.00 | 0.00 | 79 | 1010.5 |
| 20260509145002 | 78 | 309 | 0.0 | 3.5 | 0.00 | 0.00 | 0.00 | 80 | 1010.5 |
| 20260509144502 | 78 | 330 | 0.0 | 1.7 | 0.00 | 0.00 | 0.00 | 81 | 1010.6 |
| 20260509144003 | 77 | 312 | 0.0 | 1.7 | 0.00 | 0.00 | 0.00 | 81 | 1010.4 |
| 20260509143502 | 77 | 326 | 0.0 | 1.7 | 0.00 | 0.00 | 0.00 | 83 | 1010.5 |
| 20260509143003 | 76 | 311 | 0.0 | 3.5 | 0.00 | 0.00 | 0.00 | 83 | 1010.6 |
| 20260509142503 | 76 | 280 | 0.0 | 3.5 | 0.00 | 0.00 | 0.00 | 84 | 1010.5 |
| 20260509142003 | 76 | 255 | 0.0 | 3.5 | 0.00 | 0.00 | 0.00 | 85 | 1010.4 |